DW2182 Weather Reports


time (UTC)temp
F
wind
direction
speed
knots
gust
knots
rain 1hr
in
rain 24hr
in
rain mn
in
humidity
%
barometer
mb
20260902162516 78 0 0.9 3.5 0.00 1.08 0.85 82 1012.5
20260902161517 77 0 1.7 3.5 0.00 1.08 0.85 80 1012.7
20260902160517 76 0.0 0.0 0.00 1.08 0.85 82 1012.6
20260902155537 77 0 0.9 3.5 0.01 1.08 0.85 82 1012.7
20260902154537 76 135 1.7 3.5 0.01 1.08 0.85 84 1012.5
20260902153517 76 135 0.9 1.7 0.01 1.08 0.85 84 1012.8
20260902152517 75 0 0.9 3.5 0.01 1.08 0.85 85 1012.7
20260902151517 74 90 1.7 3.5 0.01 1.08 0.85 87 1012.5
20260902150517 73 0.0 0.0 0.01 1.08 0.85 90 1012.1
20260902145517 73 68 0.9 4.3 0.00 1.07 0.84 90 1011.7
20260902144516 72 45 0.9 2.6 0.00 1.07 0.84 91 1011.5
20260902143517 71 0.0 0.0 0.00 1.07 0.84 92 1011.5
20260902142517 71 0.0 0.0 0.01 1.07 0.84 92 1011.6
20260902141537 70 0.0 0.0 0.01 1.07 0.84 93 1011.5
20260902140516 70 0.0 0.0 0.01 1.07 0.84 94 1011.5
20260902135517 69 68 0.9 2.6 0.01 1.07 0.84 94 1011.4
20260902134517 69 68 0.9 2.6 0.01 1.07 0.84 95 1011.4
20260902133537 69 68 0.9 2.6 0.01 1.07 0.84 95 1011.7
20260902132516 68 45 0.9 2.6 0.00 1.06 0.83 96 1011.5
20260902131536 68 45 0.9 2.6 0.00 1.06 0.83 96 1011.5
20260902130516 68 0.0 0.0 0.01 1.06 0.83 97 1011.6
20260902125517 67 0.0 1.7 0.01 1.06 0.83 97 1011.6
20260902124557 67 0.0 0.0 0.01 1.06 0.83 97 1011.6
20260902123516 67 0.0 0.0 0.01 1.06 0.83 97 1011.7
20260902122517 67 0.0 0.0 0.01 1.06 0.83 97 1011.7
20260902121517 66 0.0 0.0 0.02 1.06 0.83 97 1011.3
20260902120517 67 0.0 0.0 0.01 1.05 0.82 97 1011.5
20260902115517 67 0.0 0.0 0.01 1.05 0.82 97 1011.6
20260902114517 67 0.0 0.0 0.02 1.05 0.82 97 1011.5
20260902113537 67 0.0 0.0 0.02 1.05 0.82 97 1011.4
20260902112517 67 0.0 0.0 0.02 1.05 0.82 97 1011.2
20260902111536 67 68 0.9 2.6 0.02 1.04 0.81 96 1011.3
20260902110516 67 68 0.9 2.6 0.02 1.04 0.81 96 1011.4
20260902105517 67 68 0.9 3.5 0.03 1.04 0.81 96 1011.5
20260902104537 67 68 0.9 3.5 0.02 1.03 0.80 96 1011.6
20260902103537 67 0.0 0.9 0.03 1.03 0.80 96 1011.8
20260902102517 67 68 0.9 1.7 0.04 1.03 0.80 96 1012.0
20260902101516 67 68 0.9 1.7 0.03 1.02 0.79 96 1012.4
20260902100516 67 68 0.9 1.7 0.04 1.02 0.79 96 1012.5
20260902095516 67 68 0.9 2.6 0.04 1.01 0.78 96 1012.4
20260902094516 67 68 0.9 1.7 0.05 1.01 0.78 96 1012.3
20260902093516 67 68 0.9 1.7 0.06 1.00 0.77 96 1012.4
20260902092517 67 90 1.7 4.3 0.06 0.99 0.76 96 1012.2
20260902091516 67 0.0 1.7 0.07 0.99 0.76 96 1011.9
20260902090516 67 68 0.9 2.6 0.08 0.98 0.75 96 1011.8
20260902085516 67 68 1.7 3.5 0.09 0.97 0.74 96 1012.2
20260902084516 67 90 1.7 4.3 0.10 0.96 0.73 96 1012.4
20260902083516 67 90 2.6 6.1 0.10 0.94 0.71 96 1012.7
20260902082536 67 90 4.3 7.0 0.11 0.93 0.70 96 1013.1
20260902081516 67 0.0 0.0 0.12 0.92 0.69 96 1012.9
20260902080516 67 0.0 0.0 0.13 0.90 0.67 96 1012.0
20260902075516 67 0.0 0.0 0.14 0.88 0.65 96 1011.8
20260902074516 67 90 0.9 1.7 0.16 0.86 0.63 96 1011.7
20260902073516 67 90 1.7 4.3 0.17 0.84 0.61 96 1012.1
20260902072516 67 0.0 2.6 0.19 0.82 0.59 95 1012.0
20260902071516 68 90 0.9 2.6 0.21 0.80 0.57 95 1012.0
20260902070536 68 135 1.7 6.1 0.22 0.77 0.54 95 1012.2
20260902065556 67 0.0 0.0 0.23 0.74 0.51 95 1010.6
20260902064516 68 45 2.6 6.1 0.23 0.70 0.47 95 1009.7
20260902063516 68 23 1.7 7.0 0.24 0.67 0.44 95 1010.6
20260902062516 68 23 1.7 4.3 0.24 0.63 0.40 95 1010.7
20260902061516 68 45 2.6 4.3 0.26 0.59 0.36 95 1010.9
20260902060517 68 45 2.6 7.0 0.29 0.55 0.32 95 1010.3
20260902055516 68 90 0.9 2.6 0.30 0.51 0.28 95 1011.4
20260902054516 68 90 0.9 3.5 0.29 0.47 0.24 95 1012.1
20260902053516 68 45 1.7 3.5 0.30 0.43 0.20 95 1012.5
20260902052516 68 45 0.9 4.3 0.37 0.39 0.16 94 1013.5
20260902051516 68 135 1.7 4.3 0.33 0.33 0.10 94 1014.7
20260902050516 71 113 8.7 19.1 0.26 0.26 0.03 92 1017.9
20260902045516 72 90 1.7 3.5 0.21 0.21 0.21 94 1013.4
20260902044516 72 45 0.9 2.6 0.18 0.18 0.18 94 1013.4
20260902043537 73 90 0.9 5.2 0.13 0.13 0.13 92 1012.8
20260902042516 75 113 1.7 3.5 0.02 0.02 0.02 86 1013.6
20260902041536 76 0.0 0.9 0.00 0.00 0.00 83 1012.5
20260902040516 76 23 0.9 2.6 0.00 0.00 0.00 82 1012.8
20260902035517 76 23 1.7 3.5 0.00 0.00 0.00 82 1012.6
20260902034516 76 23 1.7 4.3 0.00 0.00 0.00 83 1012.1
20260902033516 75 45 1.7 3.5 0.00 0.00 0.00 84 1012.2
20260902032516 75 45 1.7 4.3 0.00 0.00 0.00 85 1012.2
20260902031536 75 23 1.7 2.6 0.00 0.00 0.00 85 1012.3
20260902030516 75 23 0.9 2.6 0.00 0.00 0.00 85 1012.7
20260902025516 75 0.0 1.7 0.00 0.00 0.00 86 1012.5
20260902024516 76 23 0.9 2.6 0.00 0.00 0.00 85 1013.0
20260902023516 76 45 0.9 2.6 0.00 0.00 0.00 85 1012.8
20260902022516 76 45 0.9 1.7 0.00 0.00 0.00 85 1012.4
20260902021516 76 45 0.9 2.6 0.00 0.00 0.00 84 1012.4
20260902020516 76 0.0 0.0 0.00 0.00 0.00 84 1012.4
20260902015617 76 45 0.9 2.6 0.00 0.00 0.00 84 1012.5
20260902014516 76 45 0.9 2.6 0.00 0.00 0.00 84 1012.2
20260902013516 77 0.0 2.6 0.00 0.00 0.00 84 1012.2
20260902012516 77 0.0 0.0 0.00 0.00 0.00 83 1012.2
20260902011516 77 0.0 0.0 0.00 0.00 0.00 83 1012.2
20260902010516 78 45 1.7 2.6 0.00 0.00 0.00 83 1012.1
20260902005517 78 45 0.9 1.7 0.00 0.00 0.00 82 1012.1
20260902004536 79 23 0.9 2.6 0.00 0.00 0.00 82 1012.3
20260902003516 79 45 0.9 2.6 0.00 0.00 0.00 81 1012.3
20260902002516 80 23 0.9 2.6 0.00 0.00 0.00 80 1012.2
20260902001556 80 23 1.7 4.3 0.00 0.00 0.00 80 1012.1
20260902000516 80 23 0.9 2.6 0.00 0.00 0.00 81 1012.3
20260901235516 81 23 0.9 3.5 0.00 0.00 0.00 80 1012.4
20260901234516 81 23 1.7 4.3 0.00 0.00 0.00 79 1012.4
20260901233516 82 45 1.7 3.5 0.00 0.00 0.00 79 1012.5
20260901232516 82 45 1.7 5.2 0.00 0.00 0.00 79 1012.6
20260901231515 83 23 0.9 2.6 0.00 0.00 0.00 78 1012.6
20260901230516 83 23 0.9 2.6 0.00 0.00 0.00 78 1012.5
20260901225516 83 45 0.9 2.6 0.00 0.00 0.00 77 1012.6
20260901224536 83 45 1.7 3.5 0.00 0.00 0.00 77 1012.5
20260901223516 83 45 0.9 2.6 0.00 0.00 0.00 77 1012.6
20260901222517 83 0.0 1.7 0.00 0.00 0.00 77 1012.6
20260901221516 83 0.0 2.6 0.00 0.00 0.00 78 1012.7
20260901220536 83 45 0.9 2.6 0.00 0.00 0.00 76 1012.5
20260901215516 83 45 0.9 2.6 0.00 0.00 0.00 77 1012.6
20260901214516 84 45 0.9 1.7 0.00 0.00 0.00 77 1012.6
20260901213516 83 0.0 1.7 0.00 0.00 0.00 76 1012.7
20260901212516 84 45 0.9 1.7 0.00 0.00 0.00 76 1012.9
20260901211516 84 0.0 1.7 0.00 0.00 0.00 75 1012.8
20260901210516 84 0.0 1.7 0.00 0.00 0.00 75 1012.8
20260901205515 84 45 0.9 1.7 0.00 0.00 0.00 75 1012.9
20260901204515 84 45 0.9 2.6 0.00 0.00 0.00 75 1012.9
20260901203515 84 45 0.9 2.6 0.00 0.00 0.00 74 1012.9
20260901202515 84 68 0.9 3.5 0.00 0.00 0.00 73 1012.9
20260901201515 84 68 0.9 1.7 0.00 0.00 0.00 74 1013.0
20260901200516 84 0.0 1.7 0.00 0.00 0.00 76 1013.1
20260901195516 84 68 0.9 3.5 0.00 0.00 0.00 73 1013.1
20260901194517 84 90 0.9 2.6 0.00 0.00 0.00 72 1013.1
20260901193515 84 45 0.9 2.6 0.00 0.00 0.00 73 1013.1
20260901192537 84 45 0.9 2.6 0.00 0.00 0.00 73 1013.1
20260901191515 84 45 0.9 3.5 0.00 0.00 0.00 73 1013.1
20260901190518 84 68 0.9 2.6 0.00 0.00 0.00 70 1013.3
20260901185518 84 68 0.9 2.6 0.00 0.00 0.00 71 1013.1
20260901184538 83 0.0 0.0 0.00 0.00 0.00 75 1013.1
20260901183517 83 0.0 1.7 0.00 0.00 0.00 73 1013.5
20260901182537 83 135 0.9 2.6 0.00 0.00 0.00 70 1013.7
20260901181517 84 0.0 0.0 0.00 0.00 0.00 70 1014.0
20260901180517 83 68 0.9 2.6 0.00 0.00 0.00 72 1014.0
20260901175518 84 68 0.9 2.6 0.00 0.00 0.00 71 1014.1
20260901174518 82 45 0.9 2.6 0.00 0.00 0.00 73 1014.1
20260901173515 82 45 0.9 2.6 0.00 0.00 0.00 72 1014.3
20260901172517 82 45 0.9 2.6 0.00 0.00 0.00 75 1013.9
20260901171518 82 45 0.9 2.6 0.00 0.00 0.00 72 1014.3
20260901170518 82 45 0.9 3.5 0.00 0.00 0.00 71 1014.5
20260901165518 82 23 0.9 2.6 0.00 0.00 0.00 72 1014.6
20260901164518 81 0 0.9 4.3 0.00 0.00 0.00 75 1014.4
20260901163517 80 23 1.7 3.5 0.00 0.00 0.00 76 1014.4